User: anonymous
Location: Unspecified
(0.0000°N, 0.0000°E)
Time: 09:39:11
(UTC+02:00)
Language:

YAOGAN 3 - Orbit

View from above orbital plane
View from above orbital plane
View from above satellite
View from above satellite

Ground track
Ground track

The orbit data is extracted from the following two-line orbital elements,

1 32289U 07055A   14260.87716016  .00000961  00000-0  12783-3 0  5840
2 32289 097.9451 252.1229 0002002 070.4272 289.7186 14.81983096370257
Epoch (UTC): 17 September 2014 21:03:06
Eccentricity: 0.0002002
inclination: 97.9451°
perigee height: 621 km
apogee height: 624 km
right ascension of ascending node: 252.1229°
argument of perigee: 70.4272°
revolutions per day: 14.81983096
mean anomaly at epoch: 289.7186°
orbit number at epoch: 37025

The dashed part of the orbit path shows where the satellite is in the earth's shadow,  

DLR